Location: Cabeza de los Veneras
(40.2000°N, 5.2000°W)
Time: 12:36:08
(UTC+00:00)

BlueWalker 3 - Pass Details

Date: 24 June 2024
Orbit: 480 x 491 km, 53.2° (Epoch: 22 July)

Event Time Altitude Azimuth Distance (km) Brightness Sun altitude
Rises 22:27:37 0° 304° (WNW) 2,541 6.6 -20.9°
Reaches altitude 10° 22:31:18 10° 341° (NNW) 1,659 5.7 -21.3°
Maximum altitude 22:32:26 11° 359° (N) 1,593 5.4 -21.4°
Drops below altitude 10° 22:33:36 10° 17° (NNE) 1,663 5.2 -21.5°
Sets 22:37:14 0° 54° (NE) 2,537 5.6 -21.8°
